Regional Weather Roundup
Issued by NWS

Home | Current Version | Previous Version | Text Only | Print | Product List | Glossary Off
Versions: 1 2 3 4 5 6 7 8 9 10 11 12 13 14 15 16 17 18 19 20 21 22 23 24 25 26 27 28 29 30 31 32 33 34 35 36 37 38 39 40 41 42 43 44 45 46 47 48 49 50

000
ASUS43 KBIS 191320
RWRND

NORTH DAKOTA REGIONAL WEATHER ROUNDUP
NATIONAL WEATHER SERVICE BISMARCK ND
800 AM CDT SUN APR 19 2015

NOTE: "FAIR" INDICATES FEW OR NO CLOUDS BELOW 12,000 FEET WITH NO
SIGNIFICANT WEATHER AND/OR OBSTRUCTIONS TO VISIBILITY.


NDZ001>003-009>011-017-191400-
NORTHWEST NORTH DAKOTA

CITY           SKY/WX    TMP DP  RH WIND       PRES   REMARKS
WILLISTON      LGT RAIN  40  34  79 NW17G29   30.02R
MINOT          CLOUDY    40  32  73 W18G25    29.89S
MINOT AFB      PTSUNNY   39  38  98 NW15      29.88S
$$

NDZ018>021-031>035-040>046-191400-
SOUTHWEST NORTH DAKOTA

CITY           SKY/WX    TMP DP  RH WIND       PRES   REMARKS
BISMARCK       MOSUNNY   40  31  70 NW13      29.92S
DICKINSON      CLOUDY    35  28  75 W14       29.98R
GARRISON         N/A     39  33  79 NW16      29.91S
HETTINGER ARPT CLEAR     34  26  72 W17       30.01S
$$

NDZ004>008-012>016-024-026-027-054-191400-
NORTHEAST NORTH DAKOTA

CITY           SKY/WX    TMP DP  RH WIND       PRES   REMARKS
GRAND FORKS    LGT RAIN  46  45  96 NW8       29.72F
GRND FRKS AFB  LGT RAIN  45  43  93 NW13      29.72F
DEVILS LAKE    CLOUDY    43  36  75 NW14      29.79S
$$

NDZ022-023-025-028>030-036>039-047>053-191400-
SOUTHEAST NORTH DAKOTA

CITY           SKY/WX    TMP DP  RH WIND       PRES   REMARKS
FARGO          LGT RAIN  49  47  93 NW13      29.70F
JAMESTOWN      CLOUDY    43  40  89 NW20      29.80R
$$




USA.gov is the U.S. government's official web portal to all federal, state and local government web resources and services.